Humboldt, Iowa, United States (50548)
Lat: 42.72N, Lon: 94.22W
Wx Zone: IAZ024
Local Info
Past Weather Observations for Sunday, April 20, 2014

NOTE: This archive is for the closest National Weather Service station to Humboldt. Information may differ from the station used for current weather conditions.

Time Weather Temperature Dewpoint Humidity Pressure Winds Precip Visibility
23:55
Mostly Cloudy
64°F / 18°C 55°F / 13°C 73% 29.98 in
(1015 mb)
S 4.6 mph
(S 7 kph)
- 10SM
23:35
Overcast
63°F / 17°C 55°F / 13°C 77% 29.98 in
(1015 mb)
S 4.6 mph
(S 7 kph)
- 10SM
23:15
Overcast
64°F / 18°C 55°F / 13°C 73% 29.98 in
(1015 mb)
SE 6.9 mph
(SE 11 kph)
- 10SM
22:55
Overcast
64°F / 18°C 55°F / 13°C 73% 29.98 in
(1015 mb)
SE 4.6 mph
(SE 7 kph)
- 10SM
22:35
Overcast
63°F / 17°C 55°F / 13°C 77% 29.98 in
(1015 mb)
Calm - 10SM
22:15
Overcast
64°F / 18°C 55°F / 13°C 73% 29.98 in
(1015 mb)
Calm - 10SM
21:55
Overcast
64°F / 18°C 55°F / 13°C 73% 29.98 in
(1015 mb)
Calm - 10SM
21:35
Overcast
66°F / 19°C 55°F / 13°C 68% 29.98 in
(1015 mb)
SSW 8.1 mph
(SSW 13 kph)
- 10SM
21:15
Overcast
Thunder Storms
66°F / 19°C 55°F / 13°C 68% 29.98 in
(1015 mb)
SW 10.4 mph
(SW 17 kph)
- 10SM
20:55
Overcast
66°F / 19°C 55°F / 13°C 68% 29.95 in
(1014 mb)
W 6.9 mph
(W 11 kph)
0.01 in
(0.25 mm)
10SM
20:35
Overcast
Thunder Storms
68°F / 20°C 55°F / 13°C 64% 29.95 in
(1014 mb)
SSW 18.4 mph
(SSW 30 kph)
0.01 in
(0.25 mm)
10SM
20:15
Overcast
Thunder Storms
70°F / 21°C 55°F / 13°C 60% 29.92 in
(1013 mb)
Calm 0.01 in
(0.25 mm)
9SM
19:55
Overcast
Thunder Storms
70°F / 21°C 57°F / 14°C 64% 29.92 in
(1013 mb)
N 4.6 mph
(N 7 kph)
- 10SM
19:35
Overcast
70°F / 21°C 57°F / 14°C 64% 29.92 in
(1013 mb)
E 8.1 mph
(E 13 kph)
- 10SM
19:15
Overcast
Thunder Storms
70°F / 21°C 57°F / 14°C 64% 29.92 in
(1013 mb)
E 10.4 mph
(E 17 kph)
- 10SM
18:55
Overcast
Thunder Storms
68°F / 20°C 59°F / 15°C 73% 29.89 in
(1012 mb)
NE 12.7 mph
(NE 20 kph)
- 10SM
18:35
Overcast
77°F / 25°C 54°F / 12°C 44% 29.89 in
(1012 mb)
NE 9.2 mph
(NE 15 kph)
- 10SM
18:15
Mostly Cloudy
79°F / 26°C 54°F / 12°C 42% 29.89 in
(1012 mb)
SSW 6.9 mph
(SSW 11 kph)
- 10SM
17:55
Partly Cloudy
79°F / 26°C 54°F / 12°C 42% 29.89 in
(1012 mb)
SSW 9.2 mph
(SSW 15 kph)
- 10SM
17:35
Mostly Cloudy
79°F / 26°C 54°F / 12°C 42% 29.89 in
(1012 mb)
SSW 9.2 mph
(SSW 15 kph)
- 10SM
17:15
Mostly Cloudy
81°F / 27°C 54°F / 12°C 39% 29.92 in
(1013 mb)
SW 10.4 mph
(SW 17 kph)
- 10SM
16:55
Partly Cloudy
81°F / 27°C 54°F / 12°C 39% 29.92 in
(1013 mb)
SW 12.7 mph
(SW 20 kph)
- 10SM
16:35
Mostly Cloudy
81°F / 27°C 55°F / 13°C 42% 29.92 in
(1013 mb)
SW 13.8 mph
(SW 22 kph)
- 10SM
16:15
Overcast
81°F / 27°C 54°F / 12°C 39% 29.92 in
(1013 mb)
SSE 17.3 mph
(SSE 28 kph)
- 10SM
15:55
Overcast
81°F / 27°C 55°F / 13°C 42% 29.92 in
(1013 mb)
SW 10.4 mph
(SW 17 kph)
- 10SM
15:35
Mostly Cloudy
81°F / 27°C 55°F / 13°C 42% 29.92 in
(1013 mb)
SW 13.8 mph
(SW 22 kph)
- 10SM
15:15
Partly Cloudy
82°F / 28°C 55°F / 13°C 40% 29.92 in
(1013 mb)
S 4.6 mph
(S 7 kph)
- 10SM
14:55
Clear
82°F / 28°C 55°F / 13°C 40% 29.95 in
(1014 mb)
SW 10.4 mph
(SW 17 kph)
- 10SM
14:35
Clear
82°F / 28°C 55°F / 13°C 40% 29.95 in
(1014 mb)
SW 9.2 mph
(SW 15 kph)
- 10SM
14:15
Clear
81°F / 27°C 55°F / 13°C 42% 29.95 in
(1014 mb)
SW 10.4 mph
(SW 17 kph)
- 10SM
13:55
Clear
79°F / 26°C 55°F / 13°C 45% 29.95 in
(1014 mb)
SSE 5.8 mph
(SSE 9 kph)
- 10SM
13:35
Clear
79°F / 26°C 55°F / 13°C 45% 29.98 in
(1015 mb)
SSE 9.2 mph
(SSE 15 kph)
- 10SM
13:15
Clear
79°F / 26°C 55°F / 13°C 45% 29.98 in
(1015 mb)
SW 9.2 mph
(SW 15 kph)
- 10SM
12:55
Clear
75°F / 24°C 61°F / 16°C 61% 29.98 in
(1015 mb)
E 3.5 mph
(E 6 kph)
- 10SM
12:35
Clear
73°F / 23°C 59°F / 15°C 61% 29.98 in
(1015 mb)
ENE 5.8 mph
(ENE 9 kph)
- 10SM
12:15
Clear
73°F / 23°C 57°F / 14°C 57% 30.01 in
(1016 mb)
N 8.1 mph
(N 13 kph)
- 10SM
11:55
Clear
73°F / 23°C 57°F / 14°C 57% 30.01 in
(1016 mb)
N 9.2 mph
(N 15 kph)
- 10SM
11:35
Partly Cloudy
73°F / 23°C 55°F / 13°C 53% 30.01 in
(1016 mb)
SE 4.6 mph
(SE 7 kph)
- 9SM
11:15
Mostly Cloudy
72°F / 22°C 55°F / 13°C 57% 30.04 in
(1017 mb)
SSE 4.6 mph
(SSE 7 kph)
- 10SM
10:55
Partly Cloudy
70°F / 21°C 55°F / 13°C 60% 30.04 in
(1017 mb)
SE 5.8 mph
(SE 9 kph)
- 10SM
10:35
Partly Cloudy
68°F / 20°C 55°F / 13°C 64% 30.04 in
(1017 mb)
SE 6.9 mph
(SE 11 kph)
- 10SM
10:15
Clear
64°F / 18°C 55°F / 13°C 73% 30.04 in
(1017 mb)
E 3.5 mph
(E 6 kph)
- 10SM
09:55
Clear
64°F / 18°C 54°F / 12°C 68% 30.04 in
(1017 mb)
Calm - 10SM
09:35
Clear
61°F / 16°C 54°F / 12°C 77% 30.04 in
(1017 mb)
SE 3.5 mph
(SE 6 kph)
- 10SM
09:15
Mostly Cloudy
57°F / 14°C 52°F / 11°C 82% 30.04 in
(1017 mb)
SE 3.5 mph
(SE 6 kph)
- 10SM
08:55
Overcast
Thunder Storms
55°F / 13°C 50°F / 10°C 82% 30.04 in
(1017 mb)
SSE 4.6 mph
(SSE 7 kph)
0.22 in
(5.59 mm)
10SM
08:35
Overcast
Thunder Storms
54°F / 12°C 52°F / 11°C 94% 30.04 in
(1017 mb)
SE 9.2 mph
(SE 15 kph)
0.21 in
(5.33 mm)
5SM
08:15
Overcast
Thunder Storms
55°F / 13°C 50°F / 10°C 82% 30.04 in
(1017 mb)
E 5.8 mph
(E 9 kph)
0.12 in
(3.05 mm)
5SM
07:55
Overcast
Thunder Storms
57°F / 14°C 48°F / 9°C 72% 30.06 in
(1018 mb)
NE 3.5 mph
(NE 6 kph)
0.02 in
(0.51 mm)
10SM
07:35
Overcast
Thunder Storms
57°F / 14°C 48°F / 9°C 72% 30.06 in
(1018 mb)
SSW 4.6 mph
(SSW 7 kph)
- 10SM
07:15
Overcast
59°F / 15°C 48°F / 9°C 68% 30.04 in
(1017 mb)
S 6.9 mph
(S 11 kph)
- 10SM
06:55
Overcast
61°F / 16°C 46°F / 8°C 59% 30.04 in
(1017 mb)
S 9.2 mph
(S 15 kph)
- 10SM
06:35
Mostly Cloudy
61°F / 16°C 46°F / 8°C 59% 30.04 in
(1017 mb)
S 10.4 mph
(S 17 kph)
- 10SM
06:15
Mostly Cloudy
61°F / 16°C 46°F / 8°C 59% 30.04 in
(1017 mb)
SSE 9.2 mph
(SSE 15 kph)
- 10SM
05:55
Overcast
61°F / 16°C 46°F / 8°C 59% 30.04 in
(1017 mb)
S 9.2 mph
(S 15 kph)
- 10SM
05:35
Mostly Cloudy
61°F / 16°C 46°F / 8°C 59% 30.01 in
(1016 mb)
S 8.1 mph
(S 13 kph)
- 10SM
05:15
Partly Cloudy
61°F / 16°C 46°F / 8°C 59% 30.01 in
(1016 mb)
S 10.4 mph
(S 17 kph)
- 10SM
04:55
Mostly Cloudy
61°F / 16°C 46°F / 8°C 59% 30.01 in
(1016 mb)
S 9.2 mph
(S 15 kph)
- 10SM
04:35
Overcast
63°F / 17°C 46°F / 8°C 56% 30.01 in
(1016 mb)
S 11.5 mph
(S 19 kph)
- 10SM
04:15
Overcast
63°F / 17°C 46°F / 8°C 56% 30.04 in
(1017 mb)
S 12.7 mph
(S 20 kph)
- 10SM
03:55
Overcast
63°F / 17°C 46°F / 8°C 56% 30.04 in
(1017 mb)
S 15 mph
(S 24 kph)
- 10SM
03:35
Overcast
63°F / 17°C 46°F / 8°C 56% 30.04 in
(1017 mb)
S 12.7 mph
(S 20 kph)
- 10SM
03:15
Overcast
63°F / 17°C 45°F / 7°C 52% 30.04 in
(1017 mb)
S 11.5 mph
(S 19 kph)
- 10SM
02:55
Overcast
63°F / 17°C 45°F / 7°C 52% 30.04 in
(1017 mb)
SSE 11.5 mph
(SSE 19 kph)
- 10SM
02:35
Overcast
63°F / 17°C 45°F / 7°C 52% 30.04 in
(1017 mb)
SSE 12.7 mph
(SSE 20 kph)
- 10SM
02:15
Overcast
63°F / 17°C 45°F / 7°C 52% 30.04 in
(1017 mb)
S 15 mph
(S 24 kph)
- 10SM
01:55
Overcast
63°F / 17°C 45°F / 7°C 52% 30.04 in
(1017 mb)
S 12.7 mph
(S 20 kph)
- 10SM
01:35
Overcast
63°F / 17°C 45°F / 7°C 52% 30.04 in
(1017 mb)
S 15 mph
(S 24 kph)
- 10SM
01:15
Overcast
63°F / 17°C 45°F / 7°C 52% 30.04 in
(1017 mb)
S 15 mph
(S 24 kph)
- 10SM
00:55
Overcast
64°F / 18°C 45°F / 7°C 49% 30.04 in
(1017 mb)
S 13.8 mph
(S 22 kph)
- 10SM
00:35
Overcast
64°F / 18°C 45°F / 7°C 49% 30.04 in
(1017 mb)
S 13.8 mph
(S 22 kph)
- 10SM
00:15
Overcast
64°F / 18°C 45°F / 7°C 49% 30.04 in
(1017 mb)
S 17.3 mph
(S 28 kph)
- 10SM
Time Weather Temperature Dewpoint Humidity Pressure Winds Precip Visibility


Weather for websites

WeatherForYou.com, LLC is not responsible for any damages or problems caused by this service. Current weather conditions are obtained from the closest station including government and personal stations which may have varying degrees of accuracy. Weather forecasts are derived from the NOAA NDFD. Like all things, this site belongs to Jesus Christ... He just trusts me to maintain it. If you have any questions or comments email webmaster@weatherforyou.com

Copyright © 2014, WeatherForYou.com LLC. All rights reserved.